Weather History for Warrensburg, MO

Change the Weather History Date:

Tuesday, June 11, 2013

  Actual Average (KSZL) Record (KSZL)
Temperature  
Mean Temperature 80 °F -  
Max Temperature 91 °F 80 °F 93 °F (2013)
Min Temperature 68 °F 61 °F 60 °F (2014)
Cooling Degree Days 14    
Growing Degree Days 30 (Base 50)    
Moisture  
Dew Point 63 °F    
Average Humidity 60    
Maximum Humidity 83    
Minimum Humidity 34    
Precipitation  
Precipitation 0.00 in - - ()
Sea Level Pressure  
Sea Level Pressure 29.87 in    
Wind  
Wind Speed 8 mph (South)    
Max Wind Speed 17 mph    
Max Gust Speed 23 mph    
Visibility 10 miles    
Events      
Averages and records for this station are not official NWS values.
T = Trace of Precipitation, MM = Missing Value Source: NWS Daily Summary

Daily Weather History Graph

Daily Weather History Graph

Search for Another Location

Airport:

Trip Planner

Search our weather history database for the weather conditions in past years. The results will help you decide how hot, cold, wet, or windy it might be!

Date:

Astronomy

Jun. 11, 2013 Rise Set
Actual Time 5:49 AM CDT 8:40 PM CDT
Civil Twilight 5:17 AM CDT 9:12 PM CDT
Nautical Twilight 4:37 AM CDT 9:52 PM CDT
Astronomical Twilight 3:52 AM CDT 10:38 PM CDT
Moon 8:32 AM CDT (6/11) 10:45 PM CDT (6/11)
Length of Visible Light 15h 54m
Length of Day
14h 50m
Waxing Crescent, 8% of the Moon is Illuminated
Jun 11
Waxing Crescent
Jun 16
First Quarter
Jun 23
Full
Jun 29
Last Quarter
Jul 8
New

Hourly Weather History & Observations

Time (CDT) Temp. Heat Index Dew Point Humidity Pressure Visibility Wind Dir Wind Speed Gust Speed Precip Events Conditions
12:15 AM 69.8 °F - 60.8 °F 73% 29.88 in 10.0 mi SE 4.6 mph - N/A   Clear
12:55 AM 69.8 °F - 60.8 °F 73% 29.88 in 10.0 mi SE 3.5 mph - N/A   Clear
1:15 AM 68.0 °F - 60.8 °F 78% 29.88 in 10.0 mi SE 4.6 mph - N/A   Clear
1:35 AM 68.0 °F - 60.8 °F 78% 29.88 in 10.0 mi SE 4.6 mph - N/A   Clear
1:55 AM 68.0 °F - 60.8 °F 78% 29.88 in 10.0 mi SE 4.6 mph - N/A   Clear
2:15 AM 68.0 °F - 60.8 °F 78% 29.87 in 10.0 mi SSE 4.6 mph - N/A   Clear
2:35 AM 69.8 °F - 60.8 °F 73% 29.88 in 10.0 mi SE 5.8 mph - N/A   Clear
2:55 AM 69.8 °F - 60.8 °F 73% 29.87 in 10.0 mi SE 6.9 mph - N/A   Clear
3:15 AM 69.8 °F - 60.8 °F 73% 29.87 in 10.0 mi SE 6.9 mph - N/A   Clear
3:55 AM 68.0 °F - 60.8 °F 78% 29.86 in 10.0 mi SE 6.9 mph - N/A   Clear
4:15 AM 68.0 °F - 62.6 °F 83% 29.86 in 10.0 mi SE 5.8 mph - N/A   Clear
4:35 AM 68.0 °F - 62.6 °F 83% 29.85 in 10.0 mi SSE 6.9 mph - N/A   Clear
4:55 AM 69.8 °F - 62.6 °F 78% 29.85 in 10.0 mi SSE 6.9 mph - N/A   Clear
5:15 AM 69.8 °F - 62.6 °F 78% 29.85 in 10.0 mi SSE 8.1 mph - N/A   Clear
5:55 AM 69.8 °F - 64.4 °F 83% 29.87 in 10.0 mi SSE 6.9 mph - N/A   Clear
6:15 AM 71.6 °F - 64.4 °F 78% 29.87 in 10.0 mi South 6.9 mph - N/A   Clear
6:35 AM 73.4 °F - 64.4 °F 73% 29.88 in 10.0 mi South 5.8 mph - N/A   Clear
6:55 AM 71.6 °F - 64.4 °F 78% 29.90 in 10.0 mi South 6.9 mph - N/A   Clear
7:15 AM 71.6 °F - 64.4 °F 78% 29.89 in 10.0 mi South 8.1 mph - N/A   Clear
7:35 AM 71.6 °F - 64.4 °F 78% 29.90 in 10.0 mi South 8.1 mph - N/A   Clear
7:55 AM 71.6 °F - 64.4 °F 78% 29.88 in 10.0 mi South 10.4 mph - N/A   Clear
8:15 AM 71.6 °F - 66.2 °F 83% 29.88 in 10.0 mi South 11.5 mph - N/A   Clear
8:35 AM 73.4 °F - 66.2 °F 78% 29.88 in 10.0 mi South 11.5 mph - N/A   Clear
8:55 AM 73.4 °F - 66.2 °F 78% 29.88 in 10.0 mi South 11.5 mph - N/A   Clear
9:15 AM 75.2 °F - 66.2 °F 73% 29.88 in 10.0 mi SSW 11.5 mph 17.3 mph N/A   Clear
9:35 AM 77.0 °F - 66.2 °F 69% 29.88 in 10.0 mi SSW 10.4 mph 16.1 mph N/A   Clear
1:15 PM 87.8 °F 90.4 °F 66.2 °F 49% 29.89 in 10.0 mi South 15.0 mph 20.7 mph N/A   Clear
1:35 PM 87.8 °F 89.4 °F 64.4 °F 46% 29.90 in 10.0 mi SSW 13.8 mph 21.9 mph N/A   Clear
1:55 PM 89.6 °F 92.2 °F 66.2 °F 46% 29.90 in 10.0 mi SSW 12.7 mph 17.3 mph N/A   Clear
2:15 PM 89.6 °F 91.1 °F 64.4 °F 43% 29.90 in 10.0 mi SSW 12.7 mph 23.0 mph N/A   Clear
2:35 PM 89.6 °F 91.1 °F 64.4 °F 43% 29.89 in 10.0 mi SSW 12.7 mph 23.0 mph N/A   Clear
2:55 PM 89.6 °F 90.1 °F 62.6 °F 40% 29.89 in 10.0 mi SSW 16.1 mph 21.9 mph N/A   Clear
3:15 PM 91.4 °F 90.7 °F 59.0 °F 34% 29.88 in 10.0 mi SSW 17.3 mph 23.0 mph N/A   Clear
3:35 PM 91.4 °F 92.1 °F 62.6 °F 38% 29.88 in 10.0 mi SSW 13.8 mph - N/A   Clear
3:55 PM 91.4 °F 93.2 °F 64.4 °F 41% 29.89 in 10.0 mi SSW 9.2 mph 12.7 mph N/A   Clear
4:15 PM 91.4 °F 91.4 °F 60.8 °F 36% 29.89 in 10.0 mi South 13.8 mph 17.3 mph N/A   Clear
4:35 PM 91.4 °F 90.7 °F 59.0 °F 34% 29.88 in 10.0 mi SW 16.1 mph 23.0 mph N/A   Clear
4:55 PM 91.4 °F 91.4 °F 60.8 °F 36% 29.88 in 10.0 mi SSW 11.5 mph 17.3 mph N/A   Clear
5:15 PM 91.4 °F 91.4 °F 60.8 °F 36% 29.87 in 10.0 mi SSW 11.5 mph - N/A   Clear
5:35 PM 91.4 °F 92.1 °F 62.6 °F 38% 29.86 in 10.0 mi SSW 10.4 mph 16.1 mph N/A   Clear
5:55 PM 91.4 °F 91.4 °F 60.8 °F 36% 29.85 in 10.0 mi SSW 15.0 mph 20.7 mph N/A   Clear
6:15 PM 89.6 °F 90.1 °F 62.6 °F 40% 29.85 in 10.0 mi South 6.9 mph - N/A   Clear
6:35 PM 89.6 °F 90.1 °F 62.6 °F 40% 29.84 in 10.0 mi South 11.5 mph - N/A   Clear
6:55 PM 89.6 °F 90.1 °F 62.6 °F 40% 29.84 in 10.0 mi South 9.2 mph - N/A   Clear
7:15 PM 87.8 °F 88.5 °F 62.6 °F 43% 29.84 in 10.0 mi South 11.5 mph - N/A   Clear
7:35 PM 86.0 °F 86.6 °F 62.6 °F 45% 29.84 in 10.0 mi South 6.9 mph - N/A   Clear
7:55 PM 84.2 °F 85.6 °F 64.4 °F 51% 29.83 in 10.0 mi South 6.9 mph - N/A   Clear
8:15 PM 82.4 °F 83.4 °F 62.6 °F 51% 29.83 in 10.0 mi South 9.2 mph - N/A   Clear
8:35 PM 82.4 °F 83.4 °F 62.6 °F 51% 29.83 in 10.0 mi South 10.4 mph - N/A   Clear
8:55 PM 82.4 °F 83.4 °F 62.6 °F 51% 29.83 in 10.0 mi South 6.9 mph - N/A   Clear
9:15 PM 80.6 °F 81.8 °F 62.6 °F 54% 29.84 in 10.0 mi South 8.1 mph - N/A   Clear
9:35 PM 80.6 °F 81.8 °F 62.6 °F 54% 29.85 in 10.0 mi South 9.2 mph - N/A   Clear
9:55 PM 80.6 °F 81.8 °F 62.6 °F 54% 29.85 in 10.0 mi South 9.2 mph - N/A   Clear
10:15 PM 80.6 °F 81.8 °F 62.6 °F 54% 29.87 in 10.0 mi South 8.1 mph - N/A   Clear
10:35 PM 78.8 °F - 62.6 °F 57% 29.87 in 10.0 mi South 5.8 mph - N/A   Clear
10:55 PM 77.0 °F - 62.6 °F 61% 29.87 in 10.0 mi SSE 6.9 mph - N/A   Clear
11:15 PM 77.0 °F - 64.4 °F 65% 29.87 in 10.0 mi SSE 5.8 mph - N/A   Clear
11:35 PM 75.2 °F - 64.4 °F 69% 29.87 in 10.0 mi South 5.8 mph - N/A   Clear
11:55 PM 77.0 °F - 64.4 °F 65% 29.88 in 10.0 mi South 5.8 mph - N/A   Clear